VK4CWL-13 Weather Reports


Display with metric or nautical units.
time (UTC)temp
F
wind
direction
speed
MPH
gust
MPH
rain 1hr
in
rain 24hr
in
rain mn
in
humidity
%
barometer
mb
20260902132946 59 45 0.0 1.0 0.00 0.00 0.00 55 1021.3
20260902132443 59 90 1.0 1.0 0.00 0.00 0.00 55 1021.3
20260902131439 58 22 1.0 1.0 0.00 0.00 0.00 55 1021.2
20260902130936 58 45 0.0 0.0 0.00 0.00 0.00 53 1021.2
20260902130434 59 45 0.0 0.0 0.00 0.00 0.00 53 1021.1
20260902125931 59 45 0.0 1.0 0.00 0.00 0.00 52 1021.0
20260902125429 59 45 0.0 1.0 0.00 0.00 0.00 51 1021.0
20260902124425 60 90 1.0 1.0 0.00 0.00 0.00 51 1020.9
20260902123923 60 270 1.0 1.0 0.00 0.00 0.00 51 1020.8
20260902123421 60 303 1.0 1.0 0.00 0.00 0.00 52 1020.9
20260902122918 60 270 1.0 2.0 0.00 0.00 0.00 53 1021.0
20260902122416 60 315 1.0 2.0 0.00 0.00 0.00 53 1020.9
20260902121913 59 315 1.0 2.0 0.00 0.00 0.00 52 1020.8
20260902121411 59 315 1.0 1.0 0.00 0.00 0.00 52 1020.8
20260902120408 59 270 0.0 0.0 0.00 0.00 0.00 52 1020.8
20260902115907 59 270 0.0 0.0 0.00 0.00 0.00 52 1020.8
20260902115402 59 270 0.0 0.0 0.00 0.00 0.00 52 1020.8
20260902114355 59 315 0.0 1.0 0.00 0.00 0.00 52 1020.7
20260902113852 59 135 1.0 2.0 0.00 0.00 0.00 51 1020.8
20260902113350 59 45 1.0 2.0 0.00 0.00 0.00 49 1020.6
20260902112847 60 90 3.0 4.0 0.00 0.00 0.00 48 1020.6
20260902112345 60 90 0.0 1.0 0.00 0.00 0.00 48 1020.3
20260902111843 60 0 0.0 1.0 0.00 0.00 0.00 48 1020.2
20260902111340 61 315 1.0 1.0 0.00 0.00 0.00 47 1020.3
20260902110838 61 315 0.0 0.0 0.00 0.00 0.00 47 1020.2
20260902110336 61 270 0.0 0.0 0.00 0.00 0.00 46 1020.3
20260902105834 62 270 0.0 0.0 0.00 0.00 0.00 46 1020.1
20260902104829 62 180 0.0 0.0 0.00 0.00 0.00 45 1020.2
20260902104327 63 270 0.0 0.0 0.00 0.00 0.00 44 1020.1
20260902103824 63 270 0.0 1.0 0.00 0.00 0.00 44 1020.2
20260902103322 64 90 0.0 0.0 0.00 0.00 0.00 44 1020.1
20260902102820 64 90 0.0 0.0 0.00 0.00 0.00 43 1020.0
20260902102317 65 270 1.0 1.0 0.00 0.00 0.00 43 1020.1
20260902101815 65 315 0.0 1.0 0.00 0.00 0.00 43 1020.0
20260902101313 66 315 0.0 0.0 0.00 0.00 0.00 42 1019.9
20260902100811 66 315 1.0 1.0 0.00 0.00 0.00 42 1019.8
20260902100309 66 270 0.0 0.0 0.00 0.00 0.00 41 1019.8
20260902095807 67 270 0.0 0.0 0.00 0.00 0.00 41 1019.8
20260902095306 67 270 0.0 0.0 0.00 0.00 0.00 41 1019.7
20260902094801 68 135 0.0 1.0 0.00 0.00 0.00 40 1019.7
20260902094259 68 270 1.0 1.0 0.00 0.00 0.00 40 1019.7
20260902093757 69 270 0.0 1.0 0.00 0.00 0.00 40 1019.6
20260902093255 69 180 0.0 1.0 0.00 0.00 0.00 39 1019.6
20260902092752 69 270 1.0 1.0 0.00 0.00 0.00 39 1019.5
20260902092250 70 270 0.0 0.0 0.00 0.00 0.00 39 1019.5
20260902091748 70 270 0.0 0.0 0.00 0.00 0.00 38 1019.5
20260902091246 71 180 0.0 1.0 0.00 0.00 0.00 38 1019.3
20260902090745 71 225 0.0 1.0 0.00 0.00 0.00 37 1019.3
20260902090241 72 180 1.0 1.0 0.00 0.00 0.00 37 1019.4
20260902085738 72 180 1.0 2.0 0.00 0.00 0.00 36 1019.2
20260902085236 72 180 1.0 1.0 0.00 0.00 0.00 36 1019.1
20260902084735 73 168 1.0 2.0 0.00 0.00 0.00 36 1019.2
20260902084232 73 168 1.0 2.0 0.00 0.00 0.00 35 1019.1
20260902083729 74 135 2.0 2.0 0.00 0.00 0.00 35 1019.1
20260902083227 74 180 2.0 2.0 0.00 0.00 0.00 35 1019.0
20260902082725 74 180 1.0 2.0 0.00 0.00 0.00 34 1019.0
20260902082223 75 180 1.0 2.0 0.00 0.00 0.00 34 1019.0
20260902081721 75 135 1.0 2.0 0.00 0.00 0.00 33 1018.9
20260902081218 76 135 1.0 1.0 0.00 0.00 0.00 33 1018.8
20260902080715 76 135 2.0 2.0 0.00 0.00 0.00 33 1018.7
20260902080213 77 90 2.0 3.0 0.00 0.00 0.00 32 1018.7
20260902075711 77 90 2.0 3.0 0.00 0.00 0.00 32 1018.6
20260902075209 78 135 2.0 3.0 0.00 0.00 0.00 32 1018.5
20260902074708 78 180 2.0 3.0 0.00 0.00 0.00 31 1018.5
20260902074204 79 90 3.0 5.0 0.00 0.00 0.00 31 1018.5
20260902073703 79 135 3.0 3.0 0.00 0.00 0.00 30 1018.5
20260902073200 80 90 2.0 3.0 0.00 0.00 0.00 30 1018.5
20260902072659 81 112 4.0 5.0 0.00 0.00 0.00 29 1018.4
20260902072157 81 135 3.0 3.0 0.00 0.00 0.00 30 1018.4
20260902071652 82 135 2.0 3.0 0.00 0.00 0.00 30 1018.5
20260902071150 82 135 0.0 3.0 0.00 0.00 0.00 30 1018.5
20260902070651 82 135 2.0 3.0 0.00 0.00 0.00 30 1018.4
20260902070147 82 247 2.0 3.0 0.00 0.00 0.00 30 1018.3
20260902065644 82 123 0.0 3.0 0.00 0.00 0.00 30 1018.4
20260902065141 82 225 2.0 3.0 0.00 0.00 0.00 30 1018.3
20260902064641 82 225 0.0 4.0 0.00 0.00 0.00 29 1018.3
20260902064138 82 180 5.0 7.0 0.00 0.00 0.00 28 1018.3
20260902063636 82 168 9.0 9.0 0.00 0.00 0.00 28 1018.2
20260902063136 83 146 4.0 6.0 0.00 0.00 0.00 29 1018.2
20260902062632 83 135 1.0 6.0 0.00 0.00 0.00 29 1018.4
20260902062129 83 157 4.0 6.0 0.00 0.00 0.00 29 1018.4
20260902061628 83 270 2.0 3.0 0.00 0.00 0.00 30 1018.5
20260902061124 83 292 4.0 4.0 0.00 0.00 0.00 30 1018.4
20260902060622 83 258 1.0 3.0 0.00 0.00 0.00 30 1018.5
20260902060122 83 270 1.0 6.0 0.00 0.00 0.00 30 1018.4
20260902055619 83 225 4.0 5.0 0.00 0.00 0.00 30 1018.5
20260902055116 83 202 3.0 9.0 0.00 0.00 0.00 30 1018.4
20260902054613 83 202 3.0 7.0 0.00 0.00 0.00 31 1018.5
20260902054113 83 225 3.0 3.0 0.00 0.00 0.00 31 1018.4
20260902053609 82 225 0.0 5.0 0.00 0.00 0.00 30 1018.4
20260902053106 83 67 4.0 13.0 0.00 0.00 0.00 28 1018.3
20260902052915 83 90 13.0 13.0 0.00 0.00 0.00 28 1018.4
20260902052543 83 56 5.0 15.0 0.00 0.00 0.00 29 1018.4
20260902052441 83 90 15.0 15.0 0.00 0.00 0.00 29 1018.5
20260902051939 83 247 4.0 8.0 0.00 0.00 0.00 30 1018.5
20260902051437 83 258 2.0 7.0 0.00 0.00 0.00 30 1018.6
20260902050431 83 258 8.0 11.0 0.00 0.00 0.00 31 1018.7
20260902045930 83 270 8.0 10.0 0.00 0.00 0.00 31 1018.9
20260902044925 83 292 6.0 7.0 0.00 0.00 0.00 31 1019.0
20260902044421 83 292 3.0 15.0 0.00 0.00 0.00 31 1018.9
20260902044319 83 315 15.0 15.0 0.00 0.00 0.00 31 1018.9
20260902043927 83 225 4.0 6.0 0.00 0.00 0.00 32 1019.0
20260902043426 83 168 4.0 7.0 0.00 0.00 0.00 31 1019.0
20260902042924 83 180 5.0 6.0 0.00 0.00 0.00 32 1019.1
20260902042422 82 270 4.0 7.0 0.00 0.00 0.00 31 1019.1
20260902041918 82 135 8.0 20.0 0.00 0.00 0.00 30 1019.1
20260902041636 83 112 18.0 19.0 0.00 0.00 0.00 30 1018.9
20260902041534 83 45 8.0 8.0 0.00 0.00 0.00 31 1019.4
20260902041342 83 0 0.0 4.0 0.00 0.00 0.00 33 1019.5
20260902040338 82 180 5.0 5.0 0.00 0.00 0.00 33 1019.7
20260902035332 82 11 4.0 7.0 0.00 0.00 0.00 32 1019.8
20260902034831 82 326 5.0 6.0 0.00 0.00 0.00 32 1019.8
20260902033826 82 202 1.0 8.0 0.00 0.00 0.00 34 1020.1
20260902033325 81 225 4.0 5.0 0.00 0.00 0.00 35 1020.1
20260902032822 81 191 4.0 9.0 0.00 0.00 0.00 34 1020.1
20260902032318 81 157 3.0 5.0 0.00 0.00 0.00 35 1020.3
20260902031816 80 135 2.0 7.0 0.00 0.00 0.00 35 1020.4
20260902031314 80 90 3.0 12.0 0.00 0.00 0.00 34 1020.6
20260902030812 80 135 9.0 9.0 0.00 0.00 0.00 35 1020.5
20260902030541 80 22 1.0 9.0 0.00 0.00 0.00 36 1020.6
20260902030039 80 135 3.0 6.0 0.00 0.00 0.00 35 1020.8
20260902025536 80 90 7.0 9.0 0.00 0.00 0.00 34 1020.8
20260902025034 79 22 2.0 4.0 0.00 0.00 0.00 37 1021.1
20260902024531 79 45 6.0 8.0 0.00 0.00 0.00 36 1021.2
20260902024027 79 0 5.0 6.0 0.00 0.00 0.00 37 1021.3
20260902023525 79 56 2.0 6.0 0.00 0.00 0.00 38 1021.3
20260902023023 79 45 3.0 7.0 0.00 0.00 0.00 39 1021.4
20260902022520 78 90 1.0 5.0 0.00 0.00 0.00 41 1021.5
20260902022019 78 90 4.0 8.0 0.00 0.00 0.00 40 1021.6
20260902021515 78 225 1.0 5.0 0.00 0.00 0.00 42 1021.8
20260902021015 77 202 5.0 5.0 0.00 0.00 0.00 42 1021.8
20260902020512 77 180 3.0 7.0 0.00 0.00 0.00 42 1022.1
20260902020009 77 90 5.0 9.0 0.00 0.00 0.00 42 1022.2
20260902015508 77 90 3.0 10.0 0.00 0.00 0.00 42 1022.3
20260902015003 77 270 2.0 6.0 0.00 0.00 0.00 44 1022.4
20260902014502 77 0 1.0 10.0 0.00 0.00 0.00 44 1022.7
20260902014140 77 22 10.0 10.0 0.00 0.00 0.00 43 1022.7
20260902013857 77 135 1.0 8.0 0.00 0.00 0.00 45 1022.8
20260902013356 77 45 3.0 4.0 0.00 0.00 0.00 46 1023.0
20260902012353 77 247 2.0 4.0 0.00 0.00 0.00 48 1023.4
20260902011851 76 270 3.0 6.0 0.00 0.00 0.00 50 1023.5
20260902011346 76 146 3.0 6.0 0.00 0.00 0.00 50 1023.5
20260902010845 75 180 2.0 4.0 0.00 0.00 0.00 50 1023.8
20260902010342 75 258 1.0 4.0 0.00 0.00 0.00 51 1023.8
20260902005339 74 22 9.0 9.0 0.00 0.00 0.00 50 1023.9
20260902004834 74 22 2.0 6.0 0.00 0.00 0.00 53 1024.1
20260902004335 73 135 5.0 7.0 0.00 0.00 0.00 51 1024.0
20260902003829 73 157 6.0 7.0 0.00 0.00 0.00 55 1024.3
20260902003327 73 45 7.0 7.0 0.00 0.00 0.00 54 1024.3
20260902002828 72 67 1.0 5.0 0.00 0.00 0.00 58 1024.5
20260902002323 72 337 2.0 8.0 0.00 0.00 0.00 59 1024.6
20260902001821 71 202 3.0 4.0 0.00 0.00 0.00 61 1024.7
20260902001318 71 45 4.0 7.0 0.00 0.00 0.00 60 1024.7
20260902000815 71 90 9.0 10.0 0.00 0.00 0.00 61 1024.6
20260902000313 70 67 4.0 9.0 0.00 0.00 0.00 61 1024.5
20260901235811 70 45 2.0 7.0 0.00 0.00 0.00 63 1024.5
20260901235309 70 45 9.0 10.0 0.00 0.00 0.00 63 1024.6
20260901234807 69 45 3.0 12.0 0.00 0.00 0.00 64 1024.8
20260901234304 69 45 8.0 9.0 0.00 0.00 0.00 65 1024.8
20260901233802 69 45 7.0 11.0 0.00 0.00 0.00 68 1024.9
20260901233300 68 0 4.0 10.0 0.00 0.00 0.00 68 1025.1
20260901232757 68 45 9.0 10.0 0.00 0.00 0.00 69 1025.2
20260901232255 68 22 7.0 9.0 0.00 0.00 0.00 69 1025.3
20260901231752 67 45 10.0 10.0 0.00 0.00 0.00 70 1025.4
20260901231601 67 0 2.0 10.0 0.00 0.00 0.00 70 1025.5
20260901231058 67 22 9.0 10.0 0.00 0.00 0.00 71 1025.6
20260901230556 67 22 5.0 9.0 0.00 0.00 0.00 73 1025.6
20260901230054 67 45 7.0 8.0 0.00 0.00 0.00 74 1025.7
20260901225552 66 90 6.0 8.0 0.00 0.00 0.00 76 1025.7
20260901225049 66 22 3.0 6.0 0.00 0.00 0.00 78 1025.8
20260901224547 65 56 4.0 9.0 0.00 0.00 0.00 78 1025.8
20260901224045 65 90 4.0 7.0 0.00 0.00 0.00 80 1025.9
20260901223542 65 112 3.0 6.0 0.00 0.00 0.00 82 1025.9
20260901223040 64 90 7.0 8.0 0.00 0.00 0.00 82 1025.7
20260901222537 63 45 4.0 6.0 0.00 0.00 0.00 85 1025.8
20260901222035 63 90 6.0 8.0 0.00 0.00 0.00 85 1025.7
20260901221534 62 90 5.0 8.0 0.00 0.00 0.00 87 1025.9
20260901221031 62 112 6.0 7.0 0.00 0.00 0.00 88 1025.9
20260901220529 61 90 6.0 8.0 0.00 0.00 0.00 90 1026.1
20260901220026 60 90 7.0 7.0 0.00 0.00 0.00 92 1026.2
20260901215524 60 90 7.0 7.0 0.00 0.00 0.00 94 1026.2
20260901215022 59 123 5.0 7.0 0.00 0.00 0.00 96 1026.2
20260901214519 58 90 8.0 8.0 0.00 0.00 0.00 97 1026.2
20260901214017 58 90 4.0 6.0 0.00 0.00 0.00 98 1026.2
20260901213012 56 112 4.0 6.0 0.00 0.00 0.00 98 1025.9
20260901212009 55 135 2.0 3.0 0.00 0.00 0.00 97 1025.9
20260901211509 54 135 3.0 3.0 0.00 0.00 0.00 96 1025.7
20260901211004 54 135 2.0 3.0 0.00 0.00 0.00 95 1025.7
20260901210506 53 135 2.0 2.0 0.00 0.00 0.00 95 1025.7
20260901210000 53 135 2.0 2.0 0.00 0.00 0.00 94 1025.6
20260901205456 53 157 2.0 3.0 0.00 0.00 0.00 94 1025.6
20260901204954 52 157 3.0 3.0 0.00 0.00 0.00 95 1025.5
20260901204453 52 135 2.0 3.0 0.00 0.00 0.00 95 1025.5
20260901203949 52 157 2.0 2.0 0.00 0.00 0.00 95 1025.4
20260901203449 52 168 2.0 3.0 0.00 0.00 0.00 95 1025.4
20260901202946 52 202 1.0 2.0 0.00 0.00 0.00 94 1025.3
20260901202444 52 180 1.0 3.0 0.00 0.00 0.00 94 1025.3
20260901201441 52 180 2.0 3.0 0.00 0.00 0.00 94 1025.2
20260901200938 52 180 2.0 4.0 0.00 0.00 0.00 94 1025.2
20260901200435 52 180 3.0 3.0 0.00 0.00 0.00 93 1025.1
20260901195932 52 168 2.0 3.0 0.00 0.00 0.00 93 1024.9
20260901194928 53 157 3.0 3.0 0.00 0.00 0.00 92 1024.8
20260901194424 53 146 2.0 3.0 0.00 0.00 0.00 92 1024.7
20260901193925 53 157 3.0 3.0 0.00 0.00 0.00 92 1024.7
20260901193420 53 157 3.0 3.0 0.00 0.00 0.00 92 1024.6
20260901192918 53 168 2.0 3.0 0.00 0.00 0.00 92 1024.5
20260901192416 53 157 2.0 3.0 0.00 0.00 0.00 91 1024.6
20260901191913 53 135 1.0 2.0 0.00 0.00 0.00 90 1024.4
20260901191410 53 180 3.0 3.0 0.00 0.00 0.00 90 1024.3
20260901190908 53 180 1.0 2.0 0.00 0.00 0.00 90 1024.4
20260901190406 53 180 2.0 3.0 0.00 0.00 0.00 90 1024.3
20260901185904 53 180 2.0 2.0 0.00 0.00 0.00 90 1024.4
20260901185401 53 202 2.0 2.0 0.00 0.00 0.00 90 1024.3
20260901184859 53 180 2.0 2.0 0.00 0.00 0.00 90 1024.4
20260901184357 53 135 2.0 3.0 0.00 0.00 0.00 89 1024.3
20260901183855 53 157 2.0 4.0 0.00 0.00 0.00 90 1024.3
20260901183353 53 180 2.0 3.0 0.00 0.00 0.00 90 1024.4
20260901182347 53 180 1.0 2.0 0.00 0.00 0.00 89 1024.2
20260901181845 53 180 2.0 2.0 0.00 0.00 0.00 88 1024.1
20260901181343 53 157 2.0 2.0 0.00 0.00 0.00 87 1024.1
20260901180841 53 135 2.0 2.0 0.00 0.00 0.00 87 1024.1
20260901180338 53 157 1.0 2.0 0.00 0.00 0.00 85 1024.0
20260901175331 53 180 1.0 1.0 0.00 0.00 0.00 82 1023.9
20260901174829 54 180 1.0 1.0 0.00 0.00 0.00 82 1023.9
20260901174327 54 213 1.0 1.0 0.00 0.00 0.00 83 1024.0
20260901173824 54 180 0.0 0.0 0.00 0.00 0.00 83 1024.0
20260901173321 55 225 1.0 1.0 0.00 0.00 0.00 84 1024.1
20260901172819 55 270 0.0 1.0 0.00 0.00 0.00 85 1024.3
20260901172317 55 180 1.0 2.0 0.00 0.00 0.00 86 1024.3
20260901171815 55 180 2.0 3.0 0.00 0.00 0.00 87 1024.4
20260901171313 55 191 3.0 3.0 0.00 0.00 0.00 87 1024.4
20260901170810 55 180 2.0 3.0 0.00 0.00 0.00 87 1024.4
20260901170308 55 180 3.0 3.0 0.00 0.00 0.00 88 1024.6
20260901165806 55 191 3.0 4.0 0.00 0.00 0.00 87 1024.6
20260901165306 55 202 2.0 3.0 0.00 0.00 0.00 86 1024.5
20260901164801 55 202 2.0 3.0 0.00 0.00 0.00 86 1024.6
20260901164258 55 191 3.0 4.0 0.00 0.00 0.00 87 1024.5
20260901163758 55 180 3.0 4.0 0.00 0.00 0.00 85 1024.5
20260901163254 55 180 3.0 4.0 0.00 0.00 0.00 86 1024.5
20260901162752 55 180 3.0 4.0 0.00 0.00 0.00 86 1024.5
20260901162250 56 180 2.0 3.0 0.00 0.00 0.00 84 1024.5
20260901161747 56 180 2.0 4.0 0.00 0.00 0.00 84 1024.5
20260901161245 56 202 3.0 3.0 0.00 0.00 0.00 83 1024.4
20260901160743 56 180 2.0 4.0 0.00 0.00 0.00 83 1024.4
20260901160241 56 180 3.0 4.0 0.00 0.00 0.00 83 1024.5
20260901155743 57 180 2.0 3.0 0.00 0.00 0.00 82 1024.5
20260901155236 57 180 3.0 3.0 0.00 0.00 0.00 82 1024.5
20260901154733 57 180 2.0 2.0 0.00 0.00 0.00 81 1024.4
20260901154233 58 180 2.0 2.0 0.00 0.00 0.00 80 1024.5
20260901153729 58 135 1.0 2.0 0.00 0.00 0.00 80 1024.5
20260901153227 58 146 1.0 1.0 0.00 0.00 0.00 80 1024.5
20260901152725 58 123 2.0 2.0 0.00 0.00 0.00 79 1024.5
20260901152222 58 135 1.0 2.0 0.00 0.00 0.00 78 1024.5
20260901151720 58 90 1.0 1.0 0.00 0.00 0.00 78 1024.5
20260901151221 58 90 1.0 1.0 0.00 0.00 0.00 78 1024.6
20260901150719 59 67 0.0 2.0 0.00 0.00 0.00 78 1024.6
20260901150213 59 90 1.0 3.0 0.00 0.00 0.00 78 1024.7
20260901145710 59 67 1.0 3.0 0.00 0.00 0.00 78 1024.6
20260901145208 59 33 1.0 2.0 0.00 0.00 0.00 78 1024.6
20260901144706 59 67 2.0 2.0 0.00 0.00 0.00 77 1024.7
20260901144204 60 45 2.0 2.0 0.00 0.00 0.00 77 1024.8
20260901143702 60 45 1.0 3.0 0.00 0.00 0.00 78 1024.8
20260901143159 60 45 3.0 3.0 0.00 0.00 0.00 78 1024.8
20260901142657 60 45 2.0 3.0 0.00 0.00 0.00 78 1024.7
20260901142155 60 11 2.0 3.0 0.00 0.00 0.00 79 1024.8
20260901141652 60 45 2.0 4.0 0.00 0.00 0.00 76 1024.7
20260901141150 60 45 1.0 3.0 0.00 0.00 0.00 75 1024.6
20260901140648 61 11 4.0 4.0 0.00 0.00 0.00 76 1024.7
20260901140145 61 33 3.0 4.0 0.00 0.00 0.00 76 1024.7
20260901135643 61 45 2.0 4.0 0.00 0.00 0.00 77 1024.8
20260901135141 61 0 2.0 4.0 0.00 0.00 0.00 75 1024.7
20260901134639 61 45 3.0 4.0 0.00 0.00 0.00 75 1024.8
20260901134137 62 45 4.0 4.0 0.00 0.00 0.00 71 1024.6
20260901133634 62 45 3.0 5.0 0.00 0.00 0.00 71 1024.6
20260901133132 62 45 3.0 3.0 0.00 0.00 0.00 70 1024.5